Regional Weather Roundup
Issued by NWS

Home | Current Version | Previous Version | Graphics & Text | Print | Product List | Glossary On
Versions: 1 2 3 4 5 6 7 8 9 10 11 12 13 14 15 16 17 18 19 20 21 22 23 24 25 26 27 28 29 30 31 32 33 34 35 36 37 38 39 40 41 42 43 44 45 46 47 48 49 50
000
ASUS43 KIND 210559
RWRIN

WEATHER ROUNDUP FOR INDIANA
NATIONAL WEATHER SERVICE INDIANAPOLIS IN
100 AM EST SUN DEC 21 2014

NOTE: "FAIR" INDICATES FEW OR NO CLOUDS BELOW 12,000 FEET WITH NO
SIGNIFICANT WEATHER AND/OR OBSTRUCTIONS TO VISIBILITY.

* - STATION DOES NOT REPORT WEATHER SUCH AS PRECIPITATION OR FOG.

+ - STATION NOT QUALITY CONTROLLED BY THE NATIONAL WEATHER SERVICE.
    USE DATA WITH CAUTION...ESPECIALLY DEWPOINT AND RELATIVE
    HUMIDITY OBSERVATIONS.

INZ001>003-010>013-019-020-210700-
NORTHWEST INDIANA

CITY           SKY/WX    TMP DP  RH WIND       PRES   REMARKS
VALPARAISO     NOT AVBL

$$

LMZ046-743>745-210700-
SOUTHERN LAKE MICHIGAN

STATION/POSITION TIME  TEMP WIND        PRES
                       AIR  DIR/SP/G
                 (UTC) (F)  (DEG/KT/KT) (MB)

$$

INZ004-005-014>016-021>024-210700-
NORTH CENTRAL INDIANA

CITY           SKY/WX    TMP DP  RH WIND       PRES   REMARKS
GOSHEN         CLOUDY    31  27  85 S3        30.26F FOG
6HR MIN TEMP:  31; 6HR MAX TEMP:  31;

PERU/GRISSOM   CLOUDY    30  30 100 S5        30.27S WCI  25
SOUTH BEND     CLOUDY    31  26  82 SW3       30.27S
6HR MIN TEMP:  31; 6HR MAX TEMP:  33;


$$

INZ006>009-017-018-025>027-210700-
NORTHEAST INDIANA

CITY           SKY/WX    TMP DP  RH WIND       PRES   REMARKS
ANGOLA *+      CLOUDY    28  27  93 CALM      30.26R
FORT WAYNE     CLOUDY    31  27  85 SW3       30.29S
6HR MIN TEMP:  30; 6HR MAX TEMP:  32;


$$

INZ028-029-035-036-043>045-051>053-210700-
WEST CENTRAL INDIANA

CITY           SKY/WX    TMP DP  RH WIND       PRES   REMARKS
GREENCASTLE +  CLEAR     23  19  86 CALM      30.28S FOG
LAFAYETTE      CLOUDY    30  26  85 CALM      30.28S
6HR MIN TEMP:  30; 6HR MAX TEMP:  31;

TERRE HAUTE    CLEAR     24  22  91 CALM      30.29S
6HR MIN TEMP:  24; 6HR MAX TEMP:  32;


$$

INZ030>032-037>040-046>048-054>057-064-065-210700-
CENTRAL INDIANA

CITY           SKY/WX    TMP DP  RH WIND       PRES   REMARKS
INDIANAPOLIS   PTCLDY    25  22  88 SE5       30.27F FOG     WCI  19
6HR MIN TEMP:  25; 6HR MAX TEMP:  30;

-EAGLE CREEK   CLEAR     22  19  89 CALM      30.27F
6HR MIN TEMP:  22; 6HR MAX TEMP:  30;

KOKOMO *+      CLOUDY    30  27  86 S5        30.28S WCI  25
MT COMFORT *+  CLEAR     25 N/A N/A SE3       30.28F
SHELBYVILLE    CLEAR     26  23  88 E3        30.28F FOG
6HR MIN TEMP:  26; 6HR MAX TEMP:  33;


$$

INZ033-034-041-042-049-050-058-059-210700-
EAST CENTRAL INDIANA

CITY           SKY/WX    TMP DP  RH WIND       PRES   REMARKS
MUNCIE         CLEAR     23  20  88 S3        30.28F FOG
6HR MIN TEMP:  23; 6HR MAX TEMP:  31;


$$

INZ060-061-067>069-081>083-085>088-210700-
SOUTHWEST INDIANA

CITY           SKY/WX    TMP DP  RH WIND       PRES   REMARKS
EVANSVILLE     CLEAR     27  24  89 CALM      30.30S
6HR MIN TEMP:  27; 6HR MAX TEMP:  33;

HUNTINGBURG *+ CLEAR     25  21  86 E3        30.30R
6HR MIN TEMP:  25; 6HR MAX TEMP:  30;


$$

INZ062-063-066-070>080-084-089>092-210700-
SOUTH CENTRAL AND SOUTHEAST INDIANA

CITY           SKY/WX    TMP DP  RH WIND       PRES   REMARKS
BLOOMINGTON    CLEAR     22  20  92 CALM      30.27F FOG
6HR MIN TEMP:  22; 6HR MAX TEMP:  32;


$$



USA.gov is the U.S. government's official web portal to all federal, state and local government web resources and services.